カタログに戻る

STARLINK-31616

運用中通信VLEO
NORAD 59270·PAYLOAD·🇺🇸 United States

打ち上げ Mar 19, 2024 から Vandenberg Space Force Base

Loading…

次のパス (今後24時間)

TLE

最新Source: CelesTrak SupGP

元期: Sep 15, 2026, 03:10 UTC

1 59270C 24050S   26258.13243056  .00046779  00000+0  13825-2 0  2582
2 59270  53.1589  18.4862 0001262  93.9015 107.1222 15.34358339    13

AllMySatでSTARLINK-31616をリアルタイム追跡

Download on the App Store